Providence, RI

8:57 PM EDT on April 26, 2018 (GMT -0400)
Green State

Weather History for KPVD - January, 2014

Change the Weather History Date:

Friday, January 17, 2014

  Actual Average Record
Temperature  
Mean Temperature 39 °F 29 °F  
Max Temperature 46 °F 37 °F 59 °F (1995)
Min Temperature 31 °F 21 °F -8 °F (1982)
Degree Days  
Heating Degree Days 26 36  
Month to date heating degree days 595 608  
Since 1 July heating degree days 2674 2635  
Cooling Degree Days 0 0  
Month to date cooling degree days 0 0  
Year to date cooling degree days 0 0  
Moisture  
Dew Point 30 °F    
Average Humidity 69    
Maximum Humidity 100    
Minimum Humidity 37    
Precipitation  
Precipitation 0.00 in 0.13 in 1.04 in (1956)
Month to date precipitation 2.90 2.14  
Year to date precipitation 2.90 2.14  
Snow  
Snow 0.00 in 0.30 in 9.60 in (1956)
Month to date snowfall 8.2 5.0  
Since 1 July snowfall 15.3 15.2  
Snow Depth 0.00 in    
Sea Level Pressure  
Sea Level Pressure 29.95 in    
Wind  
Wind Speed 5 mph (SSW)    
Max Wind Speed 15 mph    
Max Gust Speed 17 mph    
Visibility 8 miles    
Events      
T = Trace of Precipitation, MM = Missing Value Source: NWS Daily Summary

Daily Weather History Graph

Daily Weather History Graph

Search for Another Location

Airport or City:

Astronomy

Jan. 17, 2014 Rise Set
Actual Time 7:09 AM EST 4:42 PM EST
Civil Twilight 6:38 AM EST 5:13 PM EST
Nautical Twilight 6:04 AM EST 5:47 PM EST
Astronomical Twilight 5:31 AM EST 6:20 PM EST
Moon 6:28 PM EST (1/17) 7:33 AM EST (1/17)
Length of Visible Light 10h 34m
Length of Day
9h 33m
Full, 98% of the Moon is Illuminated
Jan 17
Full
Jan 24
Last Quarter
Jan 30
New
Feb 6
First Quarter
Feb 14
Full

Hourly Weather History & Observations

Time (EST) Temp. Windchill Dew Point Humidity Pressure Visibility Wind Dir Wind Speed Gust Speed Precip Events Conditions
12:10 AM 39.2 °F 37.0 °F 35.6 °F 87% 29.93 in 7.0 mi South 3.5 mph - N/A   Overcast
12:30 AM 39.2 °F 35.0 °F 35.6 °F 87% 29.92 in 7.0 mi SSE 5.8 mph - N/A   Overcast
12:51 AM 37.9 °F 35.5 °F 36.0 °F 93% 29.92 in 6.0 mi South 3.5 mph - N/A   Overcast
1:16 AM 37.4 °F 34.9 °F 35.6 °F 93% 29.93 in 5.0 mi SSW 3.5 mph - N/A   Overcast
1:51 AM 37.9 °F - 37.0 °F 97% 29.93 in 5.0 mi Calm Calm - N/A   Overcast
2:14 AM 39.2 °F 35.0 °F 35.6 °F 87% 29.93 in 9.0 mi WSW 5.8 mph - N/A   Overcast
2:51 AM 37.9 °F - 36.0 °F 93% 29.93 in 7.0 mi Calm Calm - N/A   Overcast
3:33 AM 37.4 °F 34.9 °F 35.6 °F 93% 29.92 in 6.0 mi SSW 3.5 mph - N/A   Overcast
3:51 AM 37.9 °F 34.4 °F 36.0 °F 93% 29.92 in 6.0 mi South 4.6 mph - N/A   Overcast
4:43 AM 33.8 °F 30.8 °F 33.8 °F 100% 29.93 in 4.0 mi SSW 3.5 mph - N/A   Mostly Cloudy
4:51 AM 35.1 °F 31.0 °F 34.0 °F 96% 29.93 in 4.0 mi SSW 4.6 mph - N/A   Mostly Cloudy
5:51 AM 34.0 °F 28.8 °F 32.0 °F 92% 29.95 in 5.0 mi SSW 5.8 mph - N/A   Partly Cloudy
6:51 AM 33.1 °F 28.7 °F 30.9 °F 92% 29.96 in 6.0 mi WSW 4.6 mph - N/A   Partly Cloudy
8:51 AM 36.0 °F 33.3 °F 30.9 °F 82% 30.00 in 10.0 mi WSW 3.5 mph - N/A   Partly Cloudy
9:51 AM 39.0 °F 34.8 °F 28.9 °F 67% 30.01 in 10.0 mi SW 5.8 mph - N/A   Scattered Clouds
10:51 AM 41.0 °F 35.2 °F 26.1 °F 55% 29.99 in 10.0 mi WSW 9.2 mph - N/A   Scattered Clouds
11:51 AM 43.0 °F 36.4 °F 23.0 °F 45% 29.97 in 10.0 mi WSW 12.7 mph - N/A   Partly Cloudy
12:51 PM 44.1 °F 39.5 °F 25.0 °F 47% 29.94 in 10.0 mi South 8.1 mph - N/A   Partly Cloudy
1:51 PM 45.0 °F 40.1 °F 19.9 °F 37% 29.93 in 10.0 mi SW 9.2 mph - N/A   Scattered Clouds
2:51 PM 45.0 °F 39.7 °F 21.9 °F 40% 29.95 in 10.0 mi SSW 10.4 mph - N/A   Scattered Clouds
3:51 PM 42.1 °F 35.2 °F 19.9 °F 41% 29.95 in 10.0 mi SSW 12.7 mph - N/A   Scattered Clouds
4:51 PM 39.0 °F 32.8 °F 23.0 °F 53% 29.97 in 10.0 mi SSW 9.2 mph - N/A   Scattered Clouds
5:51 PM 37.0 °F 34.5 °F 24.1 °F 59% 29.97 in 10.0 mi South 3.5 mph - N/A   Scattered Clouds
6:51 PM 35.1 °F - 26.1 °F 70% 29.97 in 10.0 mi Calm Calm - N/A   Partly Cloudy
7:51 PM 34.0 °F 31.0 °F 27.0 °F 75% 29.97 in 10.0 mi South 3.5 mph - N/A   Scattered Clouds
8:51 PM 33.1 °F - 27.0 °F 78% 29.96 in 8.0 mi Calm Calm - N/A   Mostly Cloudy
9:51 PM 33.1 °F - 27.0 °F 78% 29.97 in 9.0 mi Calm Calm - N/A   Mostly Cloudy
10:51 PM 32.0 °F - 27.0 °F 82% 29.95 in 8.0 mi Calm Calm - N/A   Overcast
11:51 PM 32.0 °F - 27.0 °F 82% 29.93 in 7.0 mi Calm Calm - N/A   Overcast